SL-16 DEB, 28436

Orbit data source: Space-Track

SL-16 DEB, 28436 is space debris in SSO originally from a launch on Mon, 10 Dec 2001 UTC launched from the Tyuratam Missile And Space Complex (TTMTR). Debris objects in space refer to the collection of defunct objects orbiting the Earth. Examples of debris include non-operational satellites, rocket bodies, and fragments generated from explosions, collisions, or faulty payload assembly.

Loading next visibility...
Identifier
28436, 2001-056K
Orbit
SSO
Country
Flag of CISCIS
Related business
Manufacturer
Yuzhnoe
Mission
Spacecraft
Bus & Motor
SEP MOTOR COVER, Unknown motor
Mass
~1 kg wet, ~1 kg dry
Launch date (UTC)
2001-12-10 (24 years ago)
Launch vehicle
Unknown
Launch site
Tyuratam Missile And Space Complex (TTMTR)
Object type
Payload
Rocket body
Debris
Shape & HBR
Cone, 0.5 m
Radar Cross Section
0.635 m², Small (<0.1 m²)

Expand to show TLE details & history
Last TLE update: 17 hours ago

TLE from 17 hours ago
0 SL-16 DEB
1 28436U 01056K   25310.13804786  .00000036  00000-0  14911-3 0  9991
2 28436  99.4461 263.9397 0192066 324.0943  59.1979 13.29041053159043
Epoch: 2025-11-06T03:18Z
TLE epoch observation values (Epoch: 2025-11-06T03:18:47.335Z)
Latitude
24.86893°
Longitude
164.24159°
Altitude
1,081.287 km
Speed
7.348 km/s
True Right ascension
17h 18m 09s
True Declination
24° 44' 37"
Sunlit
Object was in daylight at epoch
Visualization orbit readout
Latitude
Unknown
Longitude
Unknown
Altitude
Unknown
Speed
Unknown
Apparent Right ascension
Unknown
Apparent Declination
Unknown
Sunlit
N/A
Visualization observer readout
Local Sidereal Time
15:58:19
Azimuth
Unknown
Elevation
Unknown
Doppler factor
Unknown
Orbital elements
Apogee altitude
1,292.243 km
Perigee altitude
1,003.152 km
Semi-major axis
7,525.835 km
Eccentricity
0.01921
Inclination
99.4461°
RAAN
263.9397°
Arg. of periapsis
324.0943°
True anomaly
61.11152°
Mean anomaly
59.1979°
Eccentric anomaly
60.15238°
Mean motion
3.32438 °/min
Orbital period
108.29 mins
BSTAR
0.00014911
Loading maneuver chart data...
Computing Atmospheric mass density...
Loading historical data...
Loading historical data...
Loading historical data...
Loading historical data...
Loading historical data...
Loading historical data...
Loading historical data...

Documentation

Showing up to 5 results
|